Find Echostar I

NORAD ID: 23754 Int'l Des: 1995-073 Owner: ECHO Country: US operational
HEOCIRCULAR

Live Position

Loading 3D Globe...

About Echostar I

Description loading...

Upcoming Passes

Passes for default location (London). Set your location on the main map for personalized predictions.

Altitude History

Loading altitude history...

Two-Line Element Set

1 23754U 95073A 26106.82732139 -.00000097 00000-0 00000+0 0 9991
2 23754 8.4691 63.5800 0004024 286.0610 258.9543 0.98931014 51395
Epoch: Apr 16, 2026 • Age: 20 hours

Current Status

Altitude 36181.6 km
Velocity 3.06 km/s
Sub-Earth Point 6.58°N, 101.96°E
Launch Date Dec 28, 1995
Age 30.3 years
Type other

Technical Details

Classification Payload
Mass 3315.00 kg
Dry Mass 1324.00 kg
Total Mass 3315.00 kg
Length 3.60 m
Diameter 2.20 m
Span 23.60 m
Shape Box + 2 Pan
Manufacturer LMTEW
Bus Type AS7000
Phase Status Renamed
Owner/State ECHO/US

Most Searched